Newport News, VA

9:09 PM EST on February 06, 2016 (GMT -0500)
Felker Army Air Field

Weather History for KFAF - December, 2011

Change the Weather History Date:

Friday, December 2, 2011

  Actual Average Record
Temperature  
Mean Temperature 46 °F -  
Max Temperature 59 °F 55 °F 73 °F (1998)
Min Temperature 32 °F 38 °F 30 °F (2002)
Degree Days  
Heating Degree Days 20    
Moisture  
Dew Point 33 °F    
Average Humidity 67    
Maximum Humidity 94    
Minimum Humidity 33    
Precipitation  
Precipitation 0.00 in - - ()
Sea Level Pressure  
Sea Level Pressure 30.39 in    
Wind  
Wind Speed 2 mph (SSW)    
Max Wind Speed 8 mph    
Max Gust Speed -    
Visibility 10 miles    
Events      
Averages and records for this station are not official NWS values.
T = Trace of Precipitation, MM = Missing Value Source: NWS Daily Summary

Daily Weather History Graph

Daily Weather History Graph

Search for Another Location

Airport or City:

Trip Planner

Search our weather history database for the weather conditions in past years. The results will help you decide how hot, cold, wet, or windy it might be!

Date:

Astronomy

Dec. 02, 2011 Rise Set
Actual Time 7:02 AM EST 4:49 PM EST
Civil Twilight 6:33 AM EST 5:18 PM EST
Nautical Twilight 6:01 AM EST 5:50 PM EST
Astronomical Twilight 5:29 AM EST 6:21 PM EST
Moon 12:19 PM EST (12/2) No Moon Set
Length of Visible Light 10h 44m
Length of Day
9h 47m
First Quarter, 53% of the Moon is Illuminated
Dec 2
First Quarter
Dec 10
Full
Dec 17
Last Quarter
Dec 24
New
Jan 1
First Quarter

Hourly Weather History & Observations

Time (EST) Temp. Windchill Dew Point Humidity Pressure Visibility Wind Dir Wind Speed Gust Speed Precip Events Conditions
12:55 AM 35.2 °F - 31.8 °F 87% 30.35 in 10.0 mi Calm Calm - N/A   Clear
1:55 AM 34.7 °F - 32.4 °F 91% 30.35 in 10.0 mi Calm Calm - N/A   Clear
2:55 AM 34.5 °F - 32.2 °F 91% 30.36 in 10.0 mi Calm Calm - N/A   Clear
3:55 AM 34.5 °F - 32.2 °F 91% 30.36 in 10.0 mi Calm Calm - N/A   Clear
4:55 AM 32.9 °F - 30.7 °F 92% 30.36 in 10.0 mi Calm Calm - N/A   Clear
5:55 AM 33.4 °F - 31.1 °F 91% 30.36 in 10.0 mi Calm Calm - N/A   Clear
6:55 AM 32.4 °F - 30.7 °F 94% 30.37 in 10.0 mi Calm Calm - N/A   Clear
7:55 AM 35.1 °F - 32.7 °F 91% 30.40 in 10.0 mi Calm Calm - N/A   Clear
8:55 AM 44.6 °F 43.1 °F 38.8 °F 80% 30.40 in 10.0 mi South 3.5 mph - N/A   Clear
9:55 AM 49.1 °F - 33.8 °F 56% 30.41 in 10.0 mi Variable 4.6 mph - N/A   Clear
10:55 AM 51.8 °F - 30.7 °F 45% 30.40 in 10.0 mi Variable 5.8 mph - N/A   Clear
11:55 AM 54.9 °F - 30.9 °F 40% 30.37 in 10.0 mi Variable 5.8 mph - N/A   Clear
12:55 PM 57.4 °F - 28.9 °F 34% 30.35 in 10.0 mi SSW 8.1 mph - N/A   Clear
1:55 PM 58.5 °F - 29.8 °F 34% 30.33 in 10.0 mi SSW 6.9 mph - N/A   Clear
2:55 PM 59.9 °F - 30.4 °F 33% 30.33 in 10.0 mi SW 4.6 mph - N/A   Clear
3:55 PM 59.2 °F - 31.1 °F 35% 30.35 in 10.0 mi WSW 3.5 mph - N/A   Clear
4:55 PM 51.8 °F - 36.1 °F 55% 30.37 in 10.0 mi Calm Calm - N/A   Clear
5:55 PM 48.7 °F - 36.3 °F 62% 30.38 in 10.0 mi Calm Calm - N/A   Clear
6:55 PM 45.0 °F - 36.7 °F 73% 30.40 in 10.0 mi Calm Calm - N/A   Clear
7:55 PM 43.5 °F - 36.1 °F 75% 30.43 in 10.0 mi Calm Calm - N/A   Clear
8:55 PM 42.3 °F - 35.6 °F 77% 30.45 in 10.0 mi Calm Calm - N/A   Clear
9:55 PM 44.8 °F 43.3 °F 34.0 °F 66% 30.48 in 10.0 mi Variable 3.5 mph - N/A   Clear
10:55 PM 46.2 °F 45.0 °F 32.7 °F 59% 30.49 in 10.0 mi NNE 3.5 mph - N/A   Clear
11:55 PM 47.1 °F - 31.3 °F 54% 30.51 in 10.0 mi NNE 8.1 mph - N/A   Clear